Time,TemperatureF,DewpointF,PressureIn,WindDirection,WindDirectionDegrees,WindSpeedMPH,WindSpeedGustMPH,Humidity,HourlyPrecipIn,Conditions,Clouds,dailyrainin,SolarRadiationWatts/m^2,SoftwareType,DateUTC
2013-05-29 00:00:00,78.6,73.0,30.07,ESE,112,2.0,10.0,83,0.00,,,1.34,0.00,VWS V14.01,2013-05-29 04:00:00,
2013-05-29 00:15:00,78.6,73.0,30.07,East,90,3.0,11.0,83,0.00,,,1.34,0.00,VWS V14.01,2013-05-29 04:15:00,
2013-05-29 00:30:00,78.6,72.7,30.07,East,90,2.0,9.0,82,0.00,,,1.34,0.00,VWS V14.01,2013-05-29 04:30:00,
2013-05-29 00:45:00,78.5,71.4,30.07,East,90,3.0,10.0,79,0.00,,,1.34,0.00,VWS V14.01,2013-05-29 04:45:00,
2013-05-29 01:00:00,78.5,71.4,30.07,East,90,2.0,10.0,79,0.00,,,0.00,0.00,VWS V14.01,2013-05-29 05:00:00,
2013-05-29 01:15:00,78.5,71.8,30.07,East,90,3.0,9.0,80,0.00,,,0.00,0.00,VWS V14.01,2013-05-29 05:15:00,
2013-05-29 01:30:00,78.5,72.6,30.07,East,90,2.0,10.0,82,0.00,,,0.00,0.00,VWS V14.01,2013-05-29 05:30:00,
2013-05-29 01:45:00,78.3,72.0,30.06,East,90,2.0,9.0,81,0.00,,,0.00,0.00,VWS V14.01,2013-05-29 05:45:00,
2013-05-29 02:00:00,78.3,72.4,30.07,East,90,2.0,10.0,82,0.00,,,0.00,0.00,VWS V14.01,2013-05-29 06:00:00,
2013-05-29 02:15:00,78.4,72.8,30.07,ENE,68,1.0,6.0,83,0.00,,,0.00,0.00,VWS V14.01,2013-05-29 06:15:00,
2013-05-29 02:30:00,78.5,72.9,30.06,ENE,68,1.0,7.0,83,0.00,,,0.00,0.00,VWS V14.01,2013-05-29 06:30:00,
2013-05-29 02:45:00,78.6,73.0,30.06,ENE,68,1.0,7.0,83,0.00,,,0.00,0.00,VWS V14.01,2013-05-29 06:45:00,
2013-05-29 03:00:00,74.3,70.8,30.06,NE,45,3.0,11.0,89,0.34,,,0.34,0.00,VWS V14.01,2013-05-29 07:00:00,
2013-05-29 03:15:00,73.5,71.0,30.05,NE,45,1.0,3.0,92,0.34,,,0.34,0.00,VWS V14.01,2013-05-29 07:15:00,
2013-05-29 03:30:00,74.0,71.8,30.05,NE,45,1.0,9.0,93,0.36,,,0.36,0.00,VWS V14.01,2013-05-29 07:30:00,
2013-05-29 03:45:00,74.5,72.7,30.04,ENE,68,1.0,4.0,94,0.36,,,0.36,0.00,VWS V14.01,2013-05-29 07:45:00,
2013-05-29 04:00:00,74.7,72.9,30.04,ENE,68,0.0,3.0,94,0.36,,,0.36,0.00,VWS V14.01,2013-05-29 08:00:00,
2013-05-29 04:15:00,74.8,73.0,30.03,ENE,68,0.0,3.0,94,0.02,,,0.36,0.00,VWS V14.01,2013-05-29 08:15:00,
2013-05-29 04:30:00,74.9,73.4,30.03,ENE,68,0.0,2.0,95,0.02,,,0.36,0.00,VWS V14.01,2013-05-29 08:30:00,
2013-05-29 04:45:00,74.9,73.4,30.03,ENE,68,1.0,15.0,95,0.00,,,0.36,0.00,VWS V14.01,2013-05-29 08:45:00,
2013-05-29 05:00:00,73.4,71.9,30.03,East,90,1.0,4.0,95,0.08,,,0.44,,VWS V14.01,2013-05-29 09:00:00,
2013-05-29 05:15:00,72.4,70.6,30.03,ENE,68,2.0,7.0,94,0.08,,,0.44,0.00,VWS V14.01,2013-05-29 09:15:00,
2013-05-29 05:24:00,73.8,72.3,30.04,ESE,103,0.0,1.0,95,0.01,,,0.44,,VWS V14.01,2013-05-29 09:24:00,
2013-05-29 05:25:00,73.8,72.3,30.04,ESE,105,0.0,1.0,95,0.01,,,0.44,,VWS V14.01,2013-05-29 09:25:00,
2013-05-29 05:30:00,73.7,72.2,30.04,SE,126,1.0,5.0,95,0.01,,,0.44,,VWS V14.01,2013-05-29 09:30:00,
2013-05-29 05:35:00,73.6,72.1,30.04,ESE,111,0.0,5.0,95,0.01,,,0.45,,VWS V14.01,2013-05-29 09:35:00,
2013-05-29 05:40:00,73.4,71.6,30.04,ESE,109,0.0,5.0,94,0.01,,,0.45,,VWS V14.01,2013-05-29 09:40:00,
2013-05-29 05:45:00,73.4,71.6,30.04,East,84,0.0,5.0,94,0.01,,,0.45,,VWS V14.01,2013-05-29 09:45:00,
2013-05-29 06:00:00,73.5,72.0,30.04,SE,135,1.0,4.0,95,0.00,,,0.01,,VWS V14.01,2013-05-29 10:00:00,
2013-05-29 06:25:00,73.1,71.6,30.05,NW,306,4.0,4.0,95,0.00,,,0.97,,VWS V14.01,2013-05-29 10:25:00,
2013-05-29 06:30:00,72.8,71.3,30.05,NE,38,2.0,10.0,95,0.78,,,1.22,,VWS V14.01,2013-05-29 10:30:00,
2013-05-29 06:35:00,72.7,71.5,30.05,NE,39,1.0,10.0,96,1.00,,,1.44,,VWS V14.01,2013-05-29 10:35:00,
2013-05-29 06:40:00,72.4,71.2,30.04,NE,36,5.0,10.0,96,1.05,,,1.49,,VWS V14.01,2013-05-29 10:40:00,
2013-05-29 06:45:00,72.1,70.6,30.04,East,80,2.0,11.0,95,1.06,,,1.50,,VWS V14.01,2013-05-29 10:45:00,
2013-05-29 06:50:00,71.9,70.7,30.04,East,94,5.0,8.0,96,1.05,,,1.50,,VWS V14.01,2013-05-29 10:50:00,
2013-05-29 06:55:00,71.8,70.6,30.04,NNE,24,2.0,8.0,96,1.06,,,1.51,,VWS V14.01,2013-05-29 10:55:00,
2013-05-29 07:00:00,71.9,70.7,30.04,ESE,116,0.0,8.0,96,1.07,,,1.52,,VWS V14.01,2013-05-29 11:00:00,
2013-05-29 07:05:00,72.0,70.8,30.04,ENE,76,0.0,3.0,96,1.51,,,1.52,,VWS V14.01,2013-05-29 11:05:00,
2013-05-29 07:09:00,72.2,71.0,30.05,ESE,111,2.0,4.0,96,1.52,,,1.53,,VWS V14.01,2013-05-29 11:09:00,
2013-05-29 07:14:00,72.8,71.9,30.05,NNW,330,3.0,14.0,97,1.59,,,1.60,,VWS V14.01,2013-05-29 11:14:00,
2013-05-29 07:19:00,73.2,72.3,30.05,East,80,7.0,8.0,97,0.41,,,1.65,,VWS V14.01,2013-05-29 11:19:00,
2013-05-29 07:24:00,73.2,72.3,30.05,East,91,3.0,12.0,97,0.44,,,1.68,,VWS V14.01,2013-05-29 11:24:00,
2013-05-29 07:29:00,73.2,72.3,30.06,NE,55,0.0,12.0,97,0.46,,,1.70,,VWS V14.01,2013-05-29 11:29:00,
2013-05-29 07:30:00,72.8,71.3,30.05,ENE,63,2.0,10.0,95,0.80,,,1.24,0.00,VWS V14.01,2013-05-29 11:30:00,
2013-05-29 07:34:00,73.3,72.4,30.06,NE,54,0.0,6.0,97,0.47,,,1.71,,VWS V14.01,2013-05-29 11:34:00,
2013-05-29 07:39:00,73.5,72.6,30.06,NE,37,2.0,6.0,97,0.48,,,1.72,,VWS V14.01,2013-05-29 11:39:00,
2013-05-29 07:44:00,73.7,72.8,30.06,NE,55,0.0,7.0,97,0.49,,,1.73,,VWS V14.01,2013-05-29 11:44:00,
2013-05-29 07:45:00,72.1,70.6,30.04,SE,124,2.0,11.0,95,1.06,,,1.50,0.00,VWS V14.01,2013-05-29 11:45:00,
2013-05-29 07:49:00,73.8,72.9,30.06,ENE,59,2.0,5.0,97,0.24,,,1.74,,VWS V14.01,2013-05-29 11:49:00,
2013-05-29 07:54:00,74.0,73.1,30.06,ENE,63,4.0,5.0,97,0.24,,,1.74,,VWS V14.01,2013-05-29 11:54:00,
2013-05-29 07:59:00,74.2,73.3,30.06,NE,37,0.0,5.0,97,0.24,,,1.74,,VWS V14.01,2013-05-29 11:59:00,
2013-05-29 08:00:00,71.9,70.7,30.04,ESE,116,1.0,8.0,96,1.07,,,1.52,0.00,VWS V14.01,2013-05-29 12:00:00,
2013-05-29 08:04:00,74.2,73.3,30.05,NE,37,0.0,3.0,97,0.23,,,1.75,,VWS V14.01,2013-05-29 12:04:00,
2013-05-29 08:09:00,74.2,73.3,30.06,NE,47,3.0,3.0,97,0.23,,,1.75,,VWS V14.01,2013-05-29 12:09:00,
2013-05-29 08:14:00,74.3,73.4,30.06,NE,36,1.0,4.0,97,0.23,,,1.75,,VWS V14.01,2013-05-29 12:14:00,
2013-05-29 08:15:00,72.8,71.9,30.05,North,360,0.0,14.0,97,1.59,,,1.60,0.00,VWS V14.01,2013-05-29 12:15:00,
2013-05-29 08:19:00,74.5,73.6,30.06,NE,37,0.0,1.0,97,0.16,,,1.76,,VWS V14.01,2013-05-29 12:19:00,
2013-05-29 08:24:00,74.5,73.6,30.07,ESE,113,1.0,3.0,97,0.18,,,1.78,,VWS V14.01,2013-05-29 12:24:00,
2013-05-29 08:29:00,73.6,72.7,30.08,SSW,213,4.0,16.0,97,0.28,,,1.88,,VWS V14.01,2013-05-29 12:29:00,
2013-05-29 08:30:00,73.2,72.3,30.06,ESE,113,2.0,12.0,97,0.46,,,1.70,0.00,VWS V14.01,2013-05-29 12:30:00,
2013-05-29 08:34:00,72.3,71.1,30.08,East,98,1.0,17.0,96,0.22,,,1.92,,VWS V14.01,2013-05-29 12:34:00,
2013-05-29 08:39:00,71.9,70.7,30.08,East,82,2.0,17.0,96,0.30,,,2.00,,VWS V14.01,2013-05-29 12:39:00,
2013-05-29 08:44:00,72.0,71.1,30.08,East,98,0.0,17.0,97,0.32,,,2.02,,VWS V14.01,2013-05-29 12:44:00,
2013-05-29 08:45:00,73.7,72.8,30.06,ENE,57,3.0,7.0,97,0.49,,,1.73,0.00,VWS V14.01,2013-05-29 12:45:00,
2013-05-29 08:49:00,72.2,71.3,30.07,ENE,76,2.0,7.0,97,0.31,,,2.04,,VWS V14.01,2013-05-29 12:49:00,
2013-05-29 08:54:00,72.1,71.2,30.07,WNW,302,6.0,12.0,97,0.33,,,2.06,,VWS V14.01,2013-05-29 12:54:00,
2013-05-29 08:59:00,72.1,71.2,30.07,East,80,2.0,12.0,97,0.34,,,2.07,,VWS V14.01,2013-05-29 12:59:00,
2013-05-29 09:00:00,74.2,73.3,30.06,NE,40,4.0,5.0,97,0.24,,,1.74,0.00,VWS V14.01,2013-05-29 13:00:00,
2013-05-29 09:04:00,72.2,71.3,30.07,NE,47,2.0,7.0,97,0.33,,,2.07,,VWS V14.01,2013-05-29 13:04:00,
2013-05-29 09:09:00,72.3,71.4,30.07,East,87,6.0,7.0,97,0.34,,,2.08,,VWS V14.01,2013-05-29 13:09:00,
2013-05-29 09:14:00,72.5,71.6,30.08,East,80,1.0,7.0,97,0.34,,,2.08,,VWS V14.01,2013-05-29 13:14:00,
2013-05-29 09:15:00,74.3,73.4,30.06,NE,36,0.0,4.0,97,0.23,,,1.75,0.00,VWS V14.01,2013-05-29 13:15:00,
2013-05-29 09:19:00,72.8,71.9,30.08,ENE,66,7.0,11.0,97,0.33,,,2.08,,VWS V14.01,2013-05-29 13:19:00,
2013-05-29 09:24:00,73.1,72.2,30.08,East,86,7.0,15.0,97,0.34,,,2.09,,VWS V14.01,2013-05-29 13:24:00,
2013-05-29 09:29:00,73.5,72.6,30.08,East,92,1.0,15.0,97,0.35,,,2.10,,VWS V14.01,2013-05-29 13:29:00,
2013-05-29 09:30:00,73.4,72.5,30.08,NE,37,1.0,16.0,97,0.29,,,1.89,0.00,VWS V14.01,2013-05-29 13:30:00,
2013-05-29 09:34:00,73.7,72.8,30.08,ENE,59,4.0,9.0,97,0.23,,,2.12,,VWS V14.01,2013-05-29 13:34:00,
2013-05-29 09:39:00,73.9,73.0,30.08,ESE,103,8.0,11.0,97,0.24,,,2.13,,VWS V14.01,2013-05-29 13:39:00,
2013-05-29 09:44:00,74.0,73.1,30.07,ESE,103,8.0,11.0,97,0.25,,,2.14,,VWS V14.01,2013-05-29 13:44:00,
2013-05-29 09:45:00,72.1,71.2,30.08,ENE,65,4.0,17.0,97,0.32,,,2.02,0.00,VWS V14.01,2013-05-29 13:45:00,
2013-05-29 09:49:00,74.2,73.3,30.07,SE,130,3.0,5.0,97,0.12,,,2.14,,VWS V14.01,2013-05-29 13:49:00,
2013-05-29 09:54:00,74.3,73.4,30.07,NNE,20,3.0,5.0,97,0.13,,,2.15,,VWS V14.01,2013-05-29 13:54:00,
2013-05-29 09:59:00,74.4,73.5,30.07,East,85,5.0,7.0,97,0.13,,,2.15,,VWS V14.01,2013-05-29 13:59:00,
2013-05-29 10:00:00,72.1,71.2,30.07,NE,42,6.0,12.0,97,0.34,,,2.07,0.00,VWS V14.01,2013-05-29 14:00:00,
2013-05-29 10:04:00,74.6,73.7,30.07,ESE,110,0.0,8.0,97,0.09,,,2.16,,VWS V14.01,2013-05-29 14:04:00,
2013-05-29 10:09:00,74.7,73.8,30.07,NE,44,2.0,8.0,97,0.09,,,2.16,,VWS V14.01,2013-05-29 14:09:00,
2013-05-29 10:14:00,74.9,74.0,30.08,East,94,2.0,8.0,97,0.10,,,2.17,,VWS V14.01,2013-05-29 14:14:00,
2013-05-29 10:15:00,72.5,71.6,30.08,NNE,26,3.0,7.0,97,0.34,,,2.08,0.00,VWS V14.01,2013-05-29 14:15:00,
2013-05-29 10:19:00,75.1,74.2,30.07,ENE,78,1.0,9.0,97,0.09,,,2.17,,VWS V14.01,2013-05-29 14:19:00,
2013-05-29 10:24:00,75.5,74.6,30.08,ESE,109,3.0,9.0,97,0.10,,,2.18,,VWS V14.01,2013-05-29 14:24:00,
2013-05-29 10:29:00,75.7,74.8,30.08,SSE,157,0.0,9.0,97,0.10,,,2.18,,VWS V14.01,2013-05-29 14:29:00,
2013-05-29 10:30:00,73.5,72.6,30.08,NW,314,1.0,15.0,97,0.35,,,2.10,0.00,VWS V14.01,2013-05-29 14:30:00,
2013-05-29 10:34:00,76.0,75.1,30.08,East,100,10.0,10.0,97,0.08,,,2.18,,VWS V14.01,2013-05-29 14:34:00,
2013-05-29 10:39:00,76.0,74.8,30.08,ENE,76,4.0,10.0,96,0.08,,,2.18,,VWS V14.01,2013-05-29 14:39:00,
2013-05-29 10:44:00,76.2,75.0,30.08,ESE,104,0.0,12.0,96,0.08,,,2.18,,VWS V14.01,2013-05-29 14:44:00,
2013-05-29 10:45:00,74.0,73.1,30.07,NE,44,2.0,11.0,97,0.25,,,2.14,0.00,VWS V14.01,2013-05-29 14:45:00,
2013-05-29 10:49:00,76.3,75.1,30.08,East,84,0.0,8.0,96,0.04,,,2.18,,VWS V14.01,2013-05-29 14:49:00,
2013-05-29 10:54:00,76.2,74.7,30.08,SSE,156,2.0,8.0,95,0.04,,,2.18,,VWS V14.01,2013-05-29 14:54:00,
2013-05-29 10:59:00,76.2,74.7,30.08,ENE,58,1.0,10.0,95,0.05,,,2.19,,VWS V14.01,2013-05-29 14:59:00,
2013-05-29 11:00:00,74.5,73.6,30.07,East,88,0.0,7.0,97,0.14,,,2.16,0.00,VWS V14.01,2013-05-29 15:00:00,
2013-05-29 11:04:00,76.2,74.7,30.08,ENE,69,1.0,7.0,95,0.03,,,2.19,,VWS V14.01,2013-05-29 15:04:00,
2013-05-29 11:09:00,76.4,74.9,30.08,East,80,2.0,7.0,95,0.03,,,2.19,,VWS V14.01,2013-05-29 15:09:00,
2013-05-29 11:14:00,76.2,74.7,30.08,ESE,119,2.0,7.0,95,0.04,,,2.20,,VWS V14.01,2013-05-29 15:14:00,
2013-05-29 11:15:00,74.9,74.0,30.08,East,87,3.0,8.0,97,0.10,,,2.17,0.00,VWS V14.01,2013-05-29 15:15:00,
2013-05-29 11:19:00,76.1,74.2,30.08,East,86,5.0,8.0,94,0.03,,,2.20,,VWS V14.01,2013-05-29 15:19:00,
2013-05-29 11:24:00,76.1,74.2,30.09,NE,41,0.0,8.0,94,0.03,,,2.20,,VWS V14.01,2013-05-29 15:24:00,
2013-05-29 11:29:00,76.3,74.4,30.09,East,98,0.0,8.0,94,0.03,,,2.20,,VWS V14.01,2013-05-29 15:29:00,
2013-05-29 11:30:00,75.7,74.8,30.08,NE,42,5.0,9.0,97,0.10,,,2.18,0.00,VWS V14.01,2013-05-29 15:30:00,
2013-05-29 11:34:00,76.4,74.6,30.09,East,89,1.0,8.0,94,0.02,,,2.20,,VWS V14.01,2013-05-29 15:34:00,
2013-05-29 11:39:00,76.5,74.7,30.09,SE,131,2.0,8.0,94,0.02,,,2.20,,VWS V14.01,2013-05-29 15:39:00,
2013-05-29 11:44:00,76.6,74.8,30.09,SSE,167,3.0,8.0,94,0.02,,,2.20,,VWS V14.01,2013-05-29 15:44:00,
2013-05-29 11:45:00,76.2,75.0,30.08,East,98,0.0,12.0,96,0.08,,,2.18,0.00,VWS V14.01,2013-05-29 15:45:00,
2013-05-29 11:49:00,76.8,74.9,30.09,NE,39,0.0,7.0,94,0.02,,,2.20,,VWS V14.01,2013-05-29 15:49:00,
2013-05-29 11:54:00,76.9,74.7,30.09,ENE,57,4.0,8.0,93,0.02,,,2.20,,VWS V14.01,2013-05-29 15:54:00,
2013-05-29 11:59:00,77.0,74.8,30.09,ENE,59,3.0,8.0,93,0.02,,,2.20,,VWS V14.01,2013-05-29 15:59:00,
2013-05-29 12:00:00,76.2,74.7,30.08,SE,144,6.0,10.0,95,0.05,,,2.19,0.00,VWS V14.01,2013-05-29 16:00:00,
2013-05-29 12:04:00,77.1,74.6,30.09,ESE,110,0.0,9.0,92,0.01,,,2.20,,VWS V14.01,2013-05-29 16:04:00,
2013-05-29 12:09:00,77.3,74.8,30.09,ESE,103,5.0,9.0,92,0.01,,,2.20,,VWS V14.01,2013-05-29 16:09:00,
2013-05-29 12:14:00,77.4,74.6,30.09,ESE,109,0.0,9.0,91,0.01,,,2.20,,VWS V14.01,2013-05-29 16:14:00,
2013-05-29 12:15:00,76.2,74.3,30.08,ESE,109,3.0,7.0,94,0.04,,,2.20,0.00,VWS V14.01,2013-05-29 16:15:00,
2013-05-29 12:19:00,77.3,74.1,30.09,East,101,3.0,15.0,90,0.00,,,2.20,,VWS V14.01,2013-05-29 16:19:00,
2013-05-29 12:24:00,77.5,74.3,30.09,ENE,75,2.0,15.0,90,0.00,,,2.20,,VWS V14.01,2013-05-29 16:24:00,
2013-05-29 12:29:00,77.5,74.0,30.08,ENE,66,2.0,15.0,89,0.00,,,2.20,,VWS V14.01,2013-05-29 16:29:00,
2013-05-29 12:30:00,76.3,74.4,30.09,ENE,67,2.0,8.0,94,0.03,,,2.20,0.00,VWS V14.01,2013-05-29 16:30:00,
2013-05-29 12:34:00,77.7,74.2,30.08,East,98,0.0,4.0,89,0.00,,,2.20,,VWS V14.01,2013-05-29 16:34:00,
2013-05-29 12:39:00,77.8,74.0,30.08,East,86,2.0,10.0,88,0.00,,,2.20,,VWS V14.01,2013-05-29 16:39:00,
2013-05-29 12:44:00,77.9,74.1,30.08,East,99,3.0,10.0,88,0.00,,,2.20,,VWS V14.01,2013-05-29 16:44:00,
2013-05-29 12:45:00,76.6,74.8,30.09,ENE,78,2.0,8.0,94,0.02,,,2.20,0.00,VWS V14.01,2013-05-29 16:45:00,
2013-05-29 12:49:00,78.2,74.4,30.08,East,79,0.0,2.0,88,0.00,,,2.20,,VWS V14.01,2013-05-29 16:49:00,
2013-05-29 12:54:00,78.5,74.3,30.08,East,94,2.0,6.0,87,0.00,,,2.20,,VWS V14.01,2013-05-29 16:54:00,
2013-05-29 12:59:00,78.6,74.4,30.08,ESE,117,1.0,8.0,87,0.00,,,2.20,,VWS V14.01,2013-05-29 16:59:00,
2013-05-29 13:00:00,77.1,74.9,30.09,ESE,117,9.0,9.0,93,0.02,,,2.20,0.00,VWS V14.01,2013-05-29 17:00:00,
2013-05-29 13:04:00,78.7,74.2,30.08,East,83,5.0,7.0,86,0.00,,,2.20,,VWS V14.01,2013-05-29 17:04:00,
2013-05-29 13:09:00,79.0,74.8,30.07,ENE,76,1.0,7.0,87,0.00,,,2.20,,VWS V14.01,2013-05-29 17:09:00,
2013-05-29 13:14:00,79.2,74.3,30.08,East,90,1.0,7.0,85,0.00,,,2.20,,VWS V14.01,2013-05-29 17:14:00,
2013-05-29 13:15:00,77.4,74.6,30.09,ENE,67,1.0,10.0,91,0.01,,,2.20,0.00,VWS V14.01,2013-05-29 17:15:00,
2013-05-29 13:19:00,79.3,74.4,30.08,ESE,119,0.0,7.0,85,0.00,,,2.20,,VWS V14.01,2013-05-29 17:19:00,
2013-05-29 13:24:00,79.6,74.3,30.08,ESE,111,3.0,8.0,84,0.00,,,2.20,,VWS V14.01,2013-05-29 17:24:00,
2013-05-29 13:29:00,79.9,74.3,30.08,NE,55,1.0,8.0,83,0.00,,,2.20,,VWS V14.01,2013-05-29 17:29:00,
2013-05-29 13:30:00,77.5,74.0,30.08,ENE,67,0.0,15.0,89,0.00,,,2.20,0.00,VWS V14.01,2013-05-29 17:30:00,
2013-05-29 13:34:00,80.3,74.3,30.08,East,79,1.0,5.0,82,0.00,,,2.20,,VWS V14.01,2013-05-29 17:34:00,
2013-05-29 13:39:00,80.6,74.2,30.08,ENE,78,2.0,5.0,81,0.00,,,2.20,,VWS V14.01,2013-05-29 17:39:00,
2013-05-29 13:44:00,80.8,74.8,30.08,ENE,57,2.0,8.0,82,0.00,,,2.20,,VWS V14.01,2013-05-29 17:44:00,
2013-05-29 13:45:00,77.9,74.1,30.08,East,82,0.0,10.0,88,0.00,,,2.20,0.00,VWS V14.01,2013-05-29 17:45:00,
2013-05-29 13:49:00,81.0,75.0,30.08,East,101,3.0,4.0,82,0.00,,,2.20,,VWS V14.01,2013-05-29 17:49:00,
2013-05-29 13:54:00,81.2,75.2,30.08,NE,51,3.0,10.0,82,0.00,,,2.20,,VWS V14.01,2013-05-29 17:54:00,
2013-05-29 13:59:00,81.2,75.6,30.08,NNW,336,3.0,10.0,83,0.00,,,2.20,,VWS V14.01,2013-05-29 17:59:00,
2013-05-29 14:00:00,78.6,74.4,30.08,East,83,3.0,8.0,87,0.00,,,2.20,0.00,VWS V14.01,2013-05-29 18:00:00,
2013-05-29 14:04:00,81.2,75.6,30.07,East,94,1.0,12.0,83,0.00,,,2.20,,VWS V14.01,2013-05-29 18:04:00,
2013-05-29 14:09:00,81.0,75.3,30.08,East,81,5.0,12.0,83,0.00,,,2.20,,VWS V14.01,2013-05-29 18:09:00,
2013-05-29 14:14:00,80.9,74.5,30.08,East,81,9.0,12.0,81,0.00,,,2.20,,VWS V14.01,2013-05-29 18:14:00,
2013-05-29 14:15:00,79.2,74.3,30.08,SSE,154,3.0,7.0,85,0.00,,,2.20,0.00,VWS V14.01,2013-05-29 18:15:00,
2013-05-29 14:19:00,80.7,74.3,30.08,East,92,5.0,10.0,81,0.00,,,2.20,,VWS V14.01,2013-05-29 18:19:00,
2013-05-29 14:24:00,80.9,74.9,30.08,ESE,105,4.0,10.0,82,0.00,,,2.20,,VWS V14.01,2013-05-29 18:24:00,
2013-05-29 14:29:00,81.0,75.0,30.08,NE,44,2.0,11.0,82,0.00,,,2.20,,VWS V14.01,2013-05-29 18:29:00,
2013-05-29 14:30:00,80.0,74.4,30.08,West,261,2.0,8.0,83,0.00,,,2.20,0.00,VWS V14.01,2013-05-29 18:30:00,
2013-05-29 14:34:00,81.1,74.7,30.08,NNE,33,4.0,10.0,81,0.00,,,2.20,,VWS V14.01,2013-05-29 18:34:00,
2013-05-29 14:39:00,81.1,75.1,30.07,ESE,111,2.0,10.0,82,0.00,,,2.20,,VWS V14.01,2013-05-29 18:39:00,
2013-05-29 14:44:00,81.1,74.3,30.07,ENE,57,3.0,14.0,80,0.00,,,2.20,,VWS V14.01,2013-05-29 18:44:00,
2013-05-29 14:45:00,80.8,74.8,30.08,SSW,207,0.0,8.0,82,0.00,,,2.20,0.00,VWS V14.01,2013-05-29 18:45:00,
2013-05-29 14:49:00,81.2,74.8,30.07,SE,134,3.0,11.0,81,0.00,,,2.20,,VWS V14.01,2013-05-29 18:49:00,
2013-05-29 14:54:00,81.3,74.9,30.06,ENE,58,2.0,11.0,81,0.00,,,2.20,,VWS V14.01,2013-05-29 18:54:00,
2013-05-29 14:59:00,81.2,74.4,30.06,East,91,6.0,12.0,80,0.00,,,2.20,,VWS V14.01,2013-05-29 18:59:00,
2013-05-29 15:00:00,81.3,75.3,30.08,East,95,7.0,10.0,82,0.00,,,2.20,0.00,VWS V14.01,2013-05-29 19:00:00,
2013-05-29 15:04:00,81.1,74.7,30.06,ENE,69,1.0,12.0,81,0.00,,,2.20,,VWS V14.01,2013-05-29 19:04:00,
2013-05-29 15:09:00,81.4,74.6,30.05,ENE,74,5.0,12.0,80,0.00,,,2.20,,VWS V14.01,2013-05-29 19:09:00,
2013-05-29 15:14:00,81.8,74.3,30.05,ENE,78,5.0,12.0,78,0.00,,,2.20,,VWS V14.01,2013-05-29 19:14:00,
2013-05-29 15:15:00,80.8,74.4,30.08,NNE,13,2.0,12.0,81,0.00,,,2.20,0.00,VWS V14.01,2013-05-29 19:15:00,
2013-05-29 15:19:00,81.9,74.4,30.05,East,86,5.0,11.0,78,0.00,,,2.20,,VWS V14.01,2013-05-29 19:19:00,
2013-05-29 15:24:00,81.9,74.0,30.05,ENE,69,9.0,13.0,77,0.00,,,2.20,,VWS V14.01,2013-05-29 19:24:00,
2013-05-29 15:29:00,82.1,74.2,30.04,ESE,104,7.0,13.0,77,0.00,,,2.20,,VWS V14.01,2013-05-29 19:29:00,
2013-05-29 15:30:00,81.0,75.0,30.08,NE,45,1.0,11.0,82,0.00,,,2.20,0.00,VWS V14.01,2013-05-29 19:30:00,
2013-05-29 15:34:00,82.5,74.6,30.04,SE,128,1.0,11.0,77,0.00,,,2.20,,VWS V14.01,2013-05-29 19:34:00,
2013-05-29 15:39:00,83.2,74.5,30.04,East,88,3.0,11.0,75,0.00,,,2.20,,VWS V14.01,2013-05-29 19:39:00,
2013-05-29 15:44:00,84.4,75.2,30.04,SE,129,7.0,11.0,74,0.00,,,2.20,,VWS V14.01,2013-05-29 19:44:00,
2013-05-29 15:45:00,81.1,74.3,30.07,ESE,103,0.0,14.0,80,0.00,,,2.20,0.00,VWS V14.01,2013-05-29 19:45:00,
2013-05-29 15:49:00,84.4,74.8,30.04,ESE,117,4.0,12.0,73,0.00,,,2.20,,VWS V14.01,2013-05-29 19:49:00,
2013-05-29 15:54:00,84.1,74.5,30.04,ESE,121,1.0,12.0,73,0.00,,,2.20,,VWS V14.01,2013-05-29 19:54:00,
2013-05-29 15:59:00,83.7,74.1,30.04,East,91,5.0,13.0,73,0.00,,,2.20,,VWS V14.01,2013-05-29 19:59:00,
2013-05-29 16:00:00,81.2,74.4,30.06,ENE,69,12.0,12.0,80,0.00,,,2.20,0.00,VWS V14.01,2013-05-29 20:00:00,
2013-05-29 16:04:00,83.4,74.2,30.05,SE,136,1.0,12.0,74,0.00,,,2.20,,VWS V14.01,2013-05-29 20:04:00,
2013-05-29 16:09:00,82.8,74.1,30.04,NE,48,0.0,12.0,75,0.00,,,2.20,,VWS V14.01,2013-05-29 20:09:00,
2013-05-29 16:14:00,82.5,74.2,30.05,North,5,5.0,12.0,76,0.00,,,2.20,,VWS V14.01,2013-05-29 20:14:00,
2013-05-29 16:15:00,81.9,74.4,30.05,ENE,78,7.0,12.0,78,0.00,,,2.20,0.00,VWS V14.01,2013-05-29 20:15:00,
2013-05-29 16:19:00,82.4,74.5,30.05,SSE,150,2.0,7.0,77,0.00,,,2.20,,VWS V14.01,2013-05-29 20:19:00,
2013-05-29 16:24:00,82.2,74.3,30.05,ESE,115,0.0,14.0,77,0.00,,,2.20,,VWS V14.01,2013-05-29 20:24:00,
2013-05-29 16:29:00,82.1,74.6,30.04,ESE,107,5.0,14.0,78,0.00,,,2.20,,VWS V14.01,2013-05-29 20:29:00,
2013-05-29 16:30:00,82.2,74.3,30.04,ENE,74,5.0,13.0,77,0.00,,,2.20,0.00,VWS V14.01,2013-05-29 20:30:00,
2013-05-29 16:34:00,82.2,74.7,30.04,SE,131,1.0,5.0,78,0.00,,,2.20,,VWS V14.01,2013-05-29 20:34:00,
2013-05-29 16:39:00,82.0,74.5,30.04,NNE,30,2.0,8.0,78,0.00,,,2.20,,VWS V14.01,2013-05-29 20:39:00,
2013-05-29 16:44:00,80.5,74.5,30.04,SSE,152,11.0,14.0,82,0.03,,,2.23,,VWS V14.01,2013-05-29 20:44:00,
2013-05-29 16:45:00,84.5,74.9,30.04,East,87,9.0,11.0,73,0.00,,,2.20,0.00,VWS V14.01,2013-05-29 20:45:00,
2013-05-29 16:49:00,77.7,72.8,30.05,East,86,2.0,14.0,85,0.13,,,2.33,,VWS V14.01,2013-05-29 20:49:00,
2013-05-29 16:54:00,76.0,71.5,30.06,ESE,123,5.0,14.0,86,0.15,,,2.35,,VWS V14.01,2013-05-29 20:54:00,
2013-05-29 16:59:00,74.4,70.3,30.06,East,80,3.0,14.0,87,0.16,,,2.36,,VWS V14.01,2013-05-29 20:59:00,
2013-05-29 17:00:00,83.6,74.0,30.04,SE,132,2.0,13.0,73,0.00,,,2.20,0.00,VWS V14.01,2013-05-29 21:00:00,
2013-05-29 17:04:00,73.4,69.6,30.06,East,86,10.0,10.0,88,0.17,,,2.37,,VWS V14.01,2013-05-29 21:04:00,
2013-05-29 17:09:00,73.1,69.7,30.06,East,92,8.0,22.0,89,0.17,,,2.37,,VWS V14.01,2013-05-29 21:09:00,
2013-05-29 17:14:00,73.4,70.6,30.06,East,93,3.0,22.0,91,0.18,,,2.38,,VWS V14.01,2013-05-29 21:14:00,
2013-05-29 17:15:00,82.4,74.1,30.04,ESE,102,4.0,12.0,76,0.00,,,2.20,0.00,VWS V14.01,2013-05-29 21:15:00,
2013-05-29 17:19:00,73.6,71.1,30.06,ESE,117,5.0,15.0,92,0.18,,,2.38,,VWS V14.01,2013-05-29 21:19:00,
2013-05-29 17:24:00,73.8,71.3,30.06,ESE,105,1.0,15.0,92,0.18,,,2.38,,VWS V14.01,2013-05-29 21:24:00,
2013-05-29 17:29:00,74.0,71.5,30.06,ENE,74,8.0,15.0,92,0.18,,,2.38,,VWS V14.01,2013-05-29 21:29:00,
2013-05-29 17:30:00,82.1,74.6,30.04,NNE,27,1.0,14.0,78,0.00,,,2.20,0.00,VWS V14.01,2013-05-29 21:30:00,
2013-05-29 17:34:00,74.0,71.5,30.06,ESE,119,15.0,15.0,92,0.18,,,2.38,,VWS V14.01,2013-05-29 21:34:00,
2013-05-29 17:39:00,74.2,71.7,30.05,ENE,69,2.0,15.0,92,0.18,,,2.38,,VWS V14.01,2013-05-29 21:39:00,
2013-05-29 17:44:00,74.4,71.9,30.05,SE,135,2.0,15.0,92,0.18,,,2.38,,VWS V14.01,2013-05-29 21:44:00,
2013-05-29 17:45:00,79.7,74.1,30.04,ESE,105,2.0,14.0,83,0.03,,,2.23,0.00,VWS V14.01,2013-05-29 21:45:00,
2013-05-29 17:49:00,74.5,72.0,30.05,ENE,74,2.0,11.0,92,0.15,,,2.38,,VWS V14.01,2013-05-29 21:49:00,
2013-05-29 17:54:00,74.5,71.7,30.05,NNE,17,6.0,14.0,91,0.15,,,2.38,,VWS V14.01,2013-05-29 21:54:00,
2013-05-29 17:59:00,74.7,71.6,30.05,ESE,113,4.0,14.0,90,0.15,,,2.38,,VWS V14.01,2013-05-29 21:59:00,
2013-05-29 18:00:00,74.0,69.9,30.06,East,96,6.0,14.0,87,0.17,,,2.37,0.00,VWS V14.01,2013-05-29 22:00:00,
2013-05-29 18:04:00,74.8,71.7,30.04,East,97,1.0,7.0,90,0.01,,,2.38,,VWS V14.01,2013-05-29 22:04:00,
2013-05-29 18:09:00,74.9,71.4,30.04,East,90,3.0,9.0,89,0.01,,,2.38,,VWS V14.01,2013-05-29 22:09:00,
2013-05-29 18:14:00,75.1,71.6,30.04,ENE,72,1.0,9.0,89,0.01,,,2.38,,VWS V14.01,2013-05-29 22:14:00,
2013-05-29 18:15:00,73.5,70.7,30.05,NW,312,2.0,22.0,91,0.18,,,2.38,0.00,VWS V14.01,2013-05-29 22:15:00,
2013-05-29 18:19:00,75.3,71.5,30.04,ESE,118,0.0,8.0,88,0.00,,,2.38,,VWS V14.01,2013-05-29 22:19:00,
2013-05-29 18:24:00,75.5,71.4,30.03,SE,138,2.0,9.0,87,0.00,,,2.38,,VWS V14.01,2013-05-29 22:24:00,
2013-05-29 18:29:00,75.7,70.9,30.03,NE,35,2.0,9.0,85,0.00,,,2.38,,VWS V14.01,2013-05-29 22:29:00,
2013-05-29 18:30:00,74.0,71.5,30.06,NE,48,6.0,15.0,92,0.18,,,2.38,0.00,VWS V14.01,2013-05-29 22:30:00,
2013-05-29 18:34:00,76.0,70.8,30.03,ENE,70,8.0,8.0,84,0.00,,,2.38,,VWS V14.01,2013-05-29 22:34:00,
2013-05-29 18:39:00,76.3,70.8,30.03,ESE,103,8.0,8.0,83,0.00,,,2.38,,VWS V14.01,2013-05-29 22:39:00,
2013-05-29 18:44:00,76.6,70.7,30.03,ESE,112,1.0,8.0,82,0.00,,,2.38,,VWS V14.01,2013-05-29 22:44:00,
2013-05-29 18:45:00,74.4,72.2,30.05,NE,44,4.0,15.0,93,0.18,,,2.38,0.00,VWS V14.01,2013-05-29 22:45:00,
2013-05-29 18:49:00,76.9,70.6,30.03,ENE,63,4.0,8.0,81,0.00,,,2.38,,VWS V14.01,2013-05-29 22:49:00,
2013-05-29 18:54:00,77.4,71.1,30.02,SE,133,3.0,8.0,81,0.00,,,2.38,,VWS V14.01,2013-05-29 22:54:00,
2013-05-29 18:59:00,77.7,71.4,30.02,ENE,62,2.0,11.0,81,0.00,,,2.38,,VWS V14.01,2013-05-29 22:59:00,
2013-05-29 19:00:00,74.7,71.6,30.05,East,84,1.0,14.0,90,0.15,,,2.38,0.00,VWS V14.01,2013-05-29 23:00:00,
2013-05-29 19:04:00,78.4,72.4,30.02,East,93,0.0,3.0,82,0.00,,,2.38,,VWS V14.01,2013-05-29 23:04:00,
2013-05-29 19:09:00,78.9,72.2,30.03,ENE,65,1.0,8.0,80,0.00,,,2.38,,VWS V14.01,2013-05-29 23:09:00,
2013-05-29 19:14:00,78.7,72.0,30.03,SE,124,0.0,9.0,80,0.00,,,2.38,,VWS V14.01,2013-05-29 23:14:00,
2013-05-29 19:15:00,75.1,71.6,30.04,East,98,2.0,9.0,89,0.01,,,2.38,0.00,VWS V14.01,2013-05-29 23:15:00,
2013-05-29 19:19:00,78.7,72.4,30.03,ENE,77,0.0,7.0,81,0.00,,,2.38,,VWS V14.01,2013-05-29 23:19:00,
2013-05-29 19:24:00,78.9,72.6,30.03,East,101,1.0,7.0,81,0.00,,,2.38,,VWS V14.01,2013-05-29 23:24:00,
2013-05-29 19:29:00,79.6,72.5,30.03,ESE,109,5.0,8.0,79,0.00,,,2.38,,VWS V14.01,2013-05-29 23:29:00,
2013-05-29 19:30:00,75.8,71.0,30.03,East,81,1.0,9.0,85,0.00,,,2.38,0.00,VWS V14.01,2013-05-29 23:30:00,
2013-05-29 19:34:00,79.9,72.8,30.03,ESE,102,7.0,8.0,79,0.00,,,2.38,,VWS V14.01,2013-05-29 23:34:00,
2013-05-29 19:39:00,79.8,72.7,30.03,East,97,0.0,8.0,79,0.00,,,2.38,,VWS V14.01,2013-05-29 23:39:00,
2013-05-29 19:44:00,79.4,72.3,30.03,ENE,71,4.0,9.0,79,0.00,,,2.38,,VWS V14.01,2013-05-29 23:44:00,
2013-05-29 19:45:00,76.7,70.8,30.03,ENE,63,1.0,8.0,82,0.00,,,2.38,0.00,VWS V14.01,2013-05-29 23:45:00,
2013-05-29 19:49:00,79.1,72.8,30.03,ENE,71,2.0,7.0,81,0.00,,,2.38,,VWS V14.01,2013-05-29 23:49:00,
2013-05-29 19:54:00,78.9,72.6,30.03,North,355,1.0,8.0,81,0.00,,,2.38,,VWS V14.01,2013-05-29 23:54:00,
2013-05-29 19:59:00,78.7,72.8,30.03,NE,49,1.0,8.0,82,0.00,,,2.38,,VWS V14.01,2013-05-29 23:59:00,
2013-05-29 20:00:00,77.8,71.9,30.02,East,98,0.0,11.0,82,0.00,,,2.38,0.00,VWS V14.01,2013-05-30 00:00:00,
2013-05-29 20:04:00,78.5,72.9,30.03,North,5,0.0,8.0,83,0.00,,,2.38,,VWS V14.01,2013-05-30 00:04:00,
2013-05-29 20:09:00,78.4,72.8,30.03,East,86,2.0,8.0,83,0.00,,,2.38,,VWS V14.01,2013-05-30 00:09:00,
2013-05-29 20:14:00,78.4,72.8,30.03,SW,228,2.0,8.0,83,0.00,,,2.38,,VWS V14.01,2013-05-30 00:14:00,
2013-05-29 20:15:00,78.7,72.0,30.03,ENE,70,1.0,9.0,80,0.00,,,2.38,0.00,VWS V14.01,2013-05-30 00:15:00,
2013-05-29 20:19:00,77.6,72.7,30.04,SE,134,7.0,17.0,85,0.06,,,2.44,,VWS V14.01,2013-05-30 00:19:00,
2013-05-29 20:24:00,75.5,71.0,30.04,SE,136,7.0,17.0,86,0.06,,,2.44,,VWS V14.01,2013-05-30 00:24:00,
2013-05-29 20:29:00,74.6,70.1,30.04,ENE,76,0.0,17.0,86,0.06,,,2.44,,VWS V14.01,2013-05-30 00:29:00,
2013-05-29 20:30:00,79.6,72.5,30.03,East,82,2.0,8.0,79,0.00,,,2.38,0.00,VWS V14.01,2013-05-30 00:30:00,
2013-05-29 20:34:00,74.3,70.5,30.04,ESE,107,4.0,9.0,88,0.06,,,2.44,,VWS V14.01,2013-05-30 00:34:00,
2013-05-29 20:39:00,74.4,70.6,30.04,East,96,1.0,9.0,88,0.06,,,2.44,,VWS V14.01,2013-05-30 00:39:00,
2013-05-29 20:44:00,74.3,70.5,30.04,East,86,1.0,9.0,88,0.06,,,2.44,,VWS V14.01,2013-05-30 00:44:00,
2013-05-29 20:45:00,79.3,72.6,30.03,NE,34,0.0,9.0,80,0.00,,,2.38,0.00,VWS V14.01,2013-05-30 00:45:00,
2013-05-29 20:49:00,74.3,70.2,30.04,ESE,111,1.0,4.0,87,0.06,,,2.44,,VWS V14.01,2013-05-30 00:49:00,
2013-05-29 20:54:00,74.4,70.3,30.04,East,101,0.0,4.0,87,0.06,,,2.44,,VWS V14.01,2013-05-30 00:54:00,
2013-05-29 20:59:00,74.5,70.4,30.04,East,91,0.0,5.0,87,0.06,,,2.44,,VWS V14.01,2013-05-30 00:59:00,
2013-05-29 21:00:00,78.6,72.7,30.03,NNE,32,3.0,8.0,82,0.00,,,2.38,0.00,VWS V14.01,2013-05-30 01:00:00,
2013-05-29 21:04:00,74.7,70.6,30.04,East,82,3.0,5.0,87,0.06,,,2.44,,VWS V14.01,2013-05-30 01:04:00,
2013-05-29 21:09:00,74.9,71.1,30.04,ENE,75,1.0,5.0,88,0.06,,,2.44,,VWS V14.01,2013-05-30 01:09:00,
2013-05-29 21:14:00,75.1,71.0,30.04,ESE,113,7.0,8.0,87,0.06,,,2.44,,VWS V14.01,2013-05-30 01:14:00,
2013-05-29 21:15:00,78.4,73.2,30.03,ESE,114,3.0,10.0,84,0.00,,,2.38,0.00,VWS V14.01,2013-05-30 01:15:00,
2013-05-29 21:19:00,75.5,71.4,30.04,ESE,106,1.0,7.0,87,0.06,,,2.44,,VWS V14.01,2013-05-30 01:19:00,
2013-05-29 21:24:00,75.9,71.8,30.04,ESE,120,1.0,7.0,87,0.06,,,2.44,,VWS V14.01,2013-05-30 01:24:00,
2013-05-29 21:29:00,76.3,72.2,30.04,ENE,68,4.0,8.0,87,0.06,,,2.44,,VWS V14.01,2013-05-30 01:29:00,
2013-05-29 21:30:00,74.5,70.4,30.04,East,95,3.0,17.0,87,0.06,,,2.44,0.00,VWS V14.01,2013-05-30 01:30:00,
2013-05-29 21:34:00,76.6,72.4,30.05,NE,40,1.0,5.0,87,0.00,,,2.44,,VWS V14.01,2013-05-30 01:34:00,
2013-05-29 21:39:00,76.7,72.5,30.05,East,90,3.0,6.0,87,0.00,,,2.44,,VWS V14.01,2013-05-30 01:39:00,
2013-05-29 21:44:00,76.9,72.7,30.05,East,94,0.0,7.0,87,0.00,,,2.44,,VWS V14.01,2013-05-30 01:44:00,
2013-05-29 21:45:00,74.3,70.5,30.04,East,87,0.0,9.0,88,0.06,,,2.44,0.00,VWS V14.01,2013-05-30 01:45:00,
2013-05-29 21:49:00,77.1,73.3,30.05,ENE,58,1.0,1.0,88,0.00,,,2.44,,VWS V14.01,2013-05-30 01:49:00,
2013-05-29 21:54:00,77.3,73.5,30.05,NE,45,3.0,10.0,88,0.01,,,2.45,,VWS V14.01,2013-05-30 01:54:00,
2013-05-29 21:59:00,77.3,73.1,30.05,ESE,102,8.0,10.0,87,0.01,,,2.45,,VWS V14.01,2013-05-30 01:59:00,
2013-05-29 22:00:00,74.5,70.4,30.04,East,80,0.0,5.0,87,0.06,,,2.44,0.00,VWS V14.01,2013-05-30 02:00:00,
2013-05-29 22:04:00,77.4,72.9,30.05,ENE,61,2.0,7.0,86,0.01,,,2.45,,VWS V14.01,2013-05-30 02:04:00,
2013-05-29 22:09:00,77.5,73.0,30.05,SE,139,3.0,10.0,86,0.01,,,2.45,,VWS V14.01,2013-05-30 02:09:00,
2013-05-29 22:14:00,77.5,73.0,30.06,NNE,19,3.0,10.0,86,0.01,,,2.45,,VWS V14.01,2013-05-30 02:14:00,
2013-05-29 22:15:00,75.2,71.1,30.04,ESE,102,3.0,8.0,87,0.06,,,2.44,0.00,VWS V14.01,2013-05-30 02:15:00,
2013-05-29 22:19:00,77.6,73.1,30.06,ESE,113,1.0,8.0,86,0.01,,,2.45,,VWS V14.01,2013-05-30 02:19:00,
2013-05-29 22:24:00,77.5,73.3,30.06,East,94,3.0,8.0,87,0.01,,,2.45,,VWS V14.01,2013-05-30 02:24:00,
2013-05-29 22:29:00,77.5,73.3,30.06,SE,125,1.0,8.0,87,0.01,,,2.45,,VWS V14.01,2013-05-30 02:29:00,
2013-05-29 22:30:00,76.4,72.2,30.04,ENE,71,2.0,8.0,87,0.06,,,2.44,0.00,VWS V14.01,2013-05-30 02:30:00,
2013-05-29 22:34:00,77.5,73.0,30.06,East,87,6.0,15.0,86,0.01,,,2.45,,VWS V14.01,2013-05-30 02:34:00,
2013-05-29 22:39:00,77.4,71.8,30.07,ESE,123,7.0,15.0,83,0.01,,,2.45,,VWS V14.01,2013-05-30 02:39:00,
2013-05-29 22:44:00,76.7,70.8,30.07,ESE,107,8.0,15.0,82,0.01,,,2.45,,VWS V14.01,2013-05-30 02:44:00,
2013-05-29 22:45:00,76.9,72.7,30.05,East,86,0.0,7.0,87,0.00,,,2.44,0.00,VWS V14.01,2013-05-30 02:45:00,
2013-05-29 22:49:00,75.9,70.4,30.08,East,85,7.0,16.0,83,0.02,,,2.46,,VWS V14.01,2013-05-30 02:49:00,
2013-05-29 22:54:00,75.1,70.3,30.07,NE,51,7.0,16.0,85,0.02,,,2.46,,VWS V14.01,2013-05-30 02:54:00,
2013-05-29 22:59:00,74.5,70.4,30.07,East,94,6.0,16.0,87,0.03,,,2.47,,VWS V14.01,2013-05-30 02:59:00,
2013-05-29 23:00:00,77.3,73.1,30.05,NNE,19,4.0,10.0,87,0.01,,,2.45,0.00,VWS V14.01,2013-05-30 03:00:00,
2013-05-29 23:04:00,74.3,70.8,30.07,SE,129,0.0,4.0,89,0.02,,,2.47,,VWS V14.01,2013-05-30 03:04:00,
2013-05-29 23:09:00,74.1,70.7,30.07,South,188,0.0,4.0,89,0.02,,,2.47,,VWS V14.01,2013-05-30 03:09:00,
2013-05-29 23:14:00,74.2,70.4,30.07,ESE,121,1.0,4.0,88,0.02,,,2.47,,VWS V14.01,2013-05-30 03:14:00,
2013-05-29 23:15:00,77.6,73.1,30.06,East,79,0.0,10.0,86,0.01,,,2.45,0.00,VWS V14.01,2013-05-30 03:15:00,
2013-05-29 23:19:00,74.3,70.5,30.07,ESE,121,0.0,3.0,88,0.02,,,2.47,,VWS V14.01,2013-05-30 03:19:00,
2013-05-29 23:24:00,74.3,70.8,30.07,ENE,78,3.0,6.0,89,0.02,,,2.47,,VWS V14.01,2013-05-30 03:24:00,
2013-05-29 23:29:00,74.3,70.5,30.07,ESE,112,1.0,7.0,88,0.02,,,2.47,,VWS V14.01,2013-05-30 03:29:00,
2013-05-29 23:30:00,77.5,73.3,30.06,NNE,30,1.0,8.0,87,0.01,,,2.45,0.00,VWS V14.01,2013-05-30 03:30:00,
2013-05-29 23:34:00,74.3,70.5,30.07,ESE,116,2.0,4.0,88,0.02,,,2.47,,VWS V14.01,2013-05-30 03:34:00,
2013-05-29 23:39:00,74.3,70.2,30.07,NNE,30,4.0,8.0,87,0.02,,,2.47,,VWS V14.01,2013-05-30 03:39:00,
2013-05-29 23:44:00,74.4,70.3,30.06,East,87,2.0,8.0,87,0.02,,,2.47,,VWS V14.01,2013-05-30 03:44:00,
2013-05-29 23:45:00,76.6,70.7,30.07,ENE,61,4.0,15.0,82,0.01,,,2.45,0.00,VWS V14.01,2013-05-30 03:45:00,
2013-05-29 23:49:00,74.4,70.6,30.06,ESE,102,0.0,5.0,88,0.02,,,2.47,,VWS V14.01,2013-05-30 03:49:00,
2013-05-29 23:54:00,74.5,70.7,30.06,East,96,0.0,5.0,88,0.02,,,2.47,,VWS V14.01,2013-05-30 03:54:00,
2013-05-29 23:59:00,74.5,71.1,30.06,ENE,78,2.0,5.0,89,0.02,,,2.47,,VWS V14.01,2013-05-30 03:59:00,